Time,TemperatureF,DewpointF,PressureIn,WindDirection,WindDirectionDegrees,WindSpeedMPH,WindSpeedGustMPH,Humidity,HourlyPrecipIn,Conditions,Clouds,dailyrainin,SoftwareType,DateUTC
2013-03-11 00:02:00,38.1,30.2,28.97,SSW,206,0.0,4.9,73,0.00,,---,1.26,VWS V14.00,2013-03-11 05:02:00,
2013-03-11 00:05:00,38.1,30.2,28.97,SW,222,3.6,4.9,73,0.00,,---,0.00,VWS V14.00,2013-03-11 05:05:00,
2013-03-11 00:08:00,37.9,30.0,28.97,North,357,0.0,3.6,73,0.00,,---,0.00,VWS V14.00,2013-03-11 05:08:00,
2013-03-11 00:11:00,37.9,30.0,29.00,SSW,202,0.0,3.6,73,0.00,,---,0.00,VWS V14.00,2013-03-11 05:11:00,
2013-03-11 00:14:00,37.9,30.0,29.00,SSW,203,0.0,3.6,73,0.00,,---,0.00,VWS V14.00,2013-03-11 05:14:00,
2013-03-11 00:17:00,37.9,30.0,29.00,NNE,27,2.2,3.6,73,0.00,,---,0.00,VWS V14.00,2013-03-11 05:17:00,
2013-03-11 00:20:00,37.7,29.9,29.00,NE,40,2.2,4.0,73,0.00,,---,0.00,VWS V14.00,2013-03-11 05:20:00,
2013-03-11 00:23:00,37.6,29.4,29.00,NW,310,0.0,3.6,72,0.00,,---,0.00,VWS V14.00,2013-03-11 05:23:00,
2013-03-11 00:26:00,37.4,28.9,29.00,WSW,248,0.0,3.6,71,0.00,,---,0.00,VWS V14.00,2013-03-11 05:26:00,
2013-03-11 00:29:00,37.2,28.7,29.00,NNW,342,5.8,5.8,71,0.00,,---,0.00,VWS V14.00,2013-03-11 05:29:00,
2013-03-11 00:32:00,37.2,28.7,29.00,NNW,342,5.8,5.8,71,0.00,,---,0.00,VWS V14.00,2013-03-11 05:32:00,
2013-03-11 00:39:00,37.2,28.7,29.00,South,189,2.2,3.6,71,0.00,,---,0.00,VWS V14.00,2013-03-11 05:39:00,
2013-03-11 00:42:00,37.2,28.7,29.00,North,7,0.0,3.6,71,0.00,,---,0.00,VWS V14.00,2013-03-11 05:42:00,
2013-03-11 00:45:00,37.2,28.7,29.00,NE,38,0.0,3.6,71,0.00,,---,0.00,VWS V14.00,2013-03-11 05:45:00,
2013-03-11 00:48:00,37.2,28.7,29.00,North,4,0.0,3.6,71,0.00,,---,0.00,VWS V14.00,2013-03-11 05:48:00,
2013-03-11 00:50:00,37.2,28.7,29.00,North,9,0.0,3.6,71,0.00,,---,0.00,VWS V14.00,2013-03-11 05:50:00,
2013-03-11 00:51:00,37.2,28.7,29.00,NNE,32,2.7,2.7,71,0.00,,---,0.00,VWS V14.00,2013-03-11 05:51:00,
2013-03-11 00:57:00,37.2,28.7,29.00,South,181,0.0,2.7,71,0.00,,---,0.00,VWS V14.00,2013-03-11 05:57:00,
2013-03-11 01:00:00,37.2,28.7,28.97,SSW,213,2.2,2.7,71,0.00,,---,0.00,VWS V14.00,2013-03-11 06:00:00,
2013-03-11 01:03:00,37.2,28.7,28.97,NW,306,0.0,2.7,71,0.00,,---,0.00,VWS V14.00,2013-03-11 06:03:00,
2013-03-11 01:05:00,37.2,28.7,28.97,NE,43,0.0,2.7,71,0.00,,---,0.00,VWS V14.00,2013-03-11 06:05:00,
2013-03-11 01:09:00,37.2,28.7,28.97,ENE,61,2.7,2.7,71,0.00,,---,0.00,VWS V14.00,2013-03-11 06:09:00,
2013-03-11 01:12:00,37.2,28.7,28.97,NNE,16,3.1,3.1,71,0.00,,---,0.00,VWS V14.00,2013-03-11 06:12:00,
2013-03-11 01:15:00,37.2,28.7,28.97,NNE,16,3.1,3.1,71,0.00,,---,0.00,VWS V14.00,2013-03-11 06:15:00,
2013-03-11 01:18:00,37.2,28.7,28.97,SSW,210,2.7,5.8,71,0.00,,---,0.00,VWS V14.00,2013-03-11 06:18:00,
2013-03-11 01:25:00,37.2,28.7,28.97,WSW,252,0.0,3.1,71,0.00,,---,0.00,VWS V14.00,2013-03-11 06:25:00,
2013-03-11 01:28:00,37.2,28.7,28.97,SSE,149,2.7,3.1,71,0.00,,---,0.00,VWS V14.00,2013-03-11 06:28:00,
2013-03-11 01:34:00,37.2,28.7,28.97,SW,221,2.2,4.0,71,0.00,,---,0.00,VWS V14.00,2013-03-11 06:34:00,
2013-03-11 01:35:00,37.2,28.7,28.97,SSW,201,0.0,4.0,71,0.00,,---,0.00,VWS V14.00,2013-03-11 06:35:00,
2013-03-11 01:37:00,37.2,28.7,28.97,SSW,201,0.0,0.0,71,0.00,,---,0.00,VWS V14.00,2013-03-11 06:37:00,
2013-03-11 01:40:00,37.2,28.7,28.97,SSW,201,0.0,0.0,71,0.00,,---,0.00,VWS V14.00,2013-03-11 06:40:00,
2013-03-11 01:43:00,37.2,28.7,28.97,West,260,3.6,4.0,71,0.00,,---,0.00,VWS V14.00,2013-03-11 06:43:00,
2013-03-11 01:49:00,37.2,28.7,28.97,East,96,3.6,4.0,71,0.00,,---,0.00,VWS V14.00,2013-03-11 06:49:00,
2013-03-11 01:50:00,37.2,28.7,28.97,East,96,3.6,4.0,71,0.00,,---,0.00,VWS V14.00,2013-03-11 06:50:00,
2013-03-11 01:55:00,37.2,28.7,28.97,South,178,2.7,3.6,71,0.00,,---,0.00,VWS V14.00,2013-03-11 06:55:00,
2013-03-11 01:58:00,35.0,26.9,29.00,West,266,3.6,3.6,72,0.00,,---,0.00,VWS V14.00,2013-03-11 06:58:00,
2013-03-11 02:01:00,35.0,26.9,29.00,West,266,3.6,3.6,72,0.00,,---,0.00,VWS V14.00,2013-03-11 07:01:00,
2013-03-11 02:04:00,35.0,26.9,29.00,South,187,0.0,3.6,72,0.00,,---,0.00,VWS V14.00,2013-03-11 07:04:00,
2013-03-11 02:05:00,35.0,26.9,29.00,South,187,0.0,3.6,72,0.00,,---,0.00,VWS V14.00,2013-03-11 07:05:00,
2013-03-11 02:07:00,35.0,26.9,29.00,NNE,26,2.7,2.7,72,0.00,,---,0.00,VWS V14.00,2013-03-11 07:07:00,
2013-03-11 02:10:00,35.0,26.9,29.00,SSW,195,2.2,2.7,72,0.00,,---,0.00,VWS V14.00,2013-03-11 07:10:00,
2013-03-11 02:13:00,35.0,26.9,29.00,ENE,70,0.0,3.6,72,0.00,,---,0.00,VWS V14.00,2013-03-11 07:13:00,
2013-03-11 02:16:00,35.0,26.9,29.00,NW,307,0.0,3.6,72,0.00,,---,0.00,VWS V14.00,2013-03-11 07:16:00,
2013-03-11 02:20:00,35.0,26.9,29.00,South,183,0.0,3.6,72,0.00,,---,0.00,VWS V14.00,2013-03-11 07:20:00,
2013-03-11 02:22:00,35.0,26.9,29.00,NE,47,0.0,0.0,72,0.00,,---,0.00,VWS V14.00,2013-03-11 07:22:00,
2013-03-11 02:25:00,35.0,26.9,29.00,NE,34,0.0,0.0,72,0.00,,---,0.00,VWS V14.00,2013-03-11 07:25:00,
2013-03-11 02:28:00,35.0,26.9,28.97,North,5,3.6,3.6,72,0.00,,---,0.00,VWS V14.00,2013-03-11 07:28:00,
2013-03-11 02:31:00,35.0,26.9,28.97,WSW,247,0.0,3.6,72,0.00,,---,0.00,VWS V14.00,2013-03-11 07:31:00,
2013-03-11 02:34:00,35.0,26.9,28.97,WSW,247,0.0,3.6,72,0.00,,---,0.00,VWS V14.00,2013-03-11 07:34:00,
2013-03-11 02:40:00,34.7,26.6,28.97,NE,40,2.7,2.7,72,0.00,,---,0.00,VWS V14.00,2013-03-11 07:40:00,
2013-03-11 02:43:00,34.7,26.6,28.97,SE,127,2.7,2.7,72,0.00,,---,0.00,VWS V14.00,2013-03-11 07:43:00,
2013-03-11 02:46:00,34.5,26.4,28.97,West,261,0.0,2.7,72,0.00,,---,0.00,VWS V14.00,2013-03-11 07:46:00,
2013-03-11 02:52:00,34.5,26.4,28.97,West,261,0.0,0.0,72,0.00,,---,0.00,VWS V14.00,2013-03-11 07:52:00,
2013-03-11 02:55:00,34.5,26.4,28.97,NNE,13,0.0,0.0,72,0.00,,---,0.00,VWS V14.00,2013-03-11 07:55:00,
2013-03-11 02:58:00,34.5,26.4,28.97,ESE,107,0.0,0.0,72,0.00,,---,0.00,VWS V14.00,2013-03-11 07:58:00,
2013-03-11 03:01:00,34.5,26.4,28.97,NE,52,0.0,0.0,72,0.00,,---,0.00,VWS V14.00,2013-03-11 08:01:00,
2013-03-11 03:04:00,34.5,26.4,28.97,SSW,206,2.7,3.1,72,0.00,,---,0.00,VWS V14.00,2013-03-11 08:04:00,
2013-03-11 03:07:00,34.5,26.4,28.97,ESE,103,0.0,2.7,72,0.00,,---,0.00,VWS V14.00,2013-03-11 08:07:00,
2013-03-11 03:10:00,34.5,26.4,28.97,SW,217,0.0,2.7,72,0.00,,---,0.00,VWS V14.00,2013-03-11 08:10:00,
2013-03-11 03:17:00,34.7,27.3,28.97,North,357,3.1,3.1,74,0.00,,---,0.00,VWS V14.00,2013-03-11 08:17:00,
2013-03-11 03:20:00,34.7,27.3,28.97,ESE,112,0.0,3.1,74,0.00,,---,0.00,VWS V14.00,2013-03-11 08:20:00,
2013-03-11 03:23:00,34.7,27.3,28.97,South,189,0.0,0.0,74,0.00,,---,0.00,VWS V14.00,2013-03-11 08:23:00,
2013-03-11 03:26:00,34.7,27.3,28.97,SSW,209,0.0,0.0,74,0.00,,---,0.00,VWS V14.00,2013-03-11 08:26:00,
2013-03-11 03:32:00,34.5,27.1,29.00,North,5,0.0,0.0,74,0.00,,---,0.00,VWS V14.00,2013-03-11 08:32:00,
2013-03-11 03:35:00,34.5,27.1,29.00,North,353,0.0,2.7,74,0.00,,---,0.00,VWS V14.00,2013-03-11 08:35:00,
2013-03-11 03:38:00,34.5,27.1,29.00,SW,223,0.0,4.0,74,0.00,,---,0.00,VWS V14.00,2013-03-11 08:38:00,
2013-03-11 03:41:00,34.5,27.1,29.00,SW,223,0.0,4.0,74,0.00,,---,0.00,VWS V14.00,2013-03-11 08:41:00,
2013-03-11 03:44:00,34.5,27.1,29.00,North,8,0.0,4.0,74,0.00,,---,0.00,VWS V14.00,2013-03-11 08:44:00,
2013-03-11 03:50:00,34.5,27.1,29.00,North,6,0.0,4.0,74,0.00,,---,0.00,VWS V14.00,2013-03-11 08:50:00,
2013-03-11 03:53:00,34.5,27.1,29.00,North,8,0.0,0.0,74,0.00,,---,0.00,VWS V14.00,2013-03-11 08:53:00,
2013-03-11 03:59:00,34.5,27.1,29.00,North,9,2.2,2.2,74,0.00,,---,0.00,VWS V14.00,2013-03-11 08:59:00,
2013-03-11 04:02:00,34.5,27.1,29.00,South,171,0.0,4.9,74,0.00,,---,0.00,VWS V14.00,2013-03-11 09:02:00,
2013-03-11 04:05:00,34.5,27.1,29.00,South,171,0.0,4.9,74,0.00,,---,0.00,VWS V14.00,2013-03-11 09:05:00,
2013-03-11 04:08:00,34.5,27.1,29.00,NNE,23,0.0,0.0,74,0.00,,---,0.00,VWS V14.00,2013-03-11 09:08:00,
2013-03-11 04:14:00,33.2,27.1,29.00,NNE,30,0.0,2.2,78,0.00,,---,0.00,VWS V14.00,2013-03-11 09:14:00,
2013-03-11 04:17:00,33.1,27.0,29.00,SW,236,4.0,4.0,78,0.00,,---,0.00,VWS V14.00,2013-03-11 09:17:00,
2013-03-11 04:20:00,33.1,27.0,29.00,NE,52,2.2,4.0,78,0.00,,---,0.00,VWS V14.00,2013-03-11 09:20:00,
2013-03-11 04:23:00,33.1,27.0,29.00,WNW,293,3.1,4.0,78,0.00,,---,0.00,VWS V14.00,2013-03-11 09:23:00,
2013-03-11 04:26:00,33.1,27.0,29.00,SW,218,0.0,4.0,78,0.00,,---,0.00,VWS V14.00,2013-03-11 09:26:00,
2013-03-11 04:32:00,33.1,27.3,29.00,North,353,0.0,4.0,79,0.00,,---,0.00,VWS V14.00,2013-03-11 09:32:00,
2013-03-11 04:35:00,33.1,27.3,29.00,South,182,0.0,4.0,79,0.00,,---,0.00,VWS V14.00,2013-03-11 09:35:00,
2013-03-11 04:41:00,33.1,27.3,29.00,ESE,117,0.0,3.1,79,0.00,,---,0.00,VWS V14.00,2013-03-11 09:41:00,
2013-03-11 04:47:00,33.1,27.3,29.00,SSW,206,0.0,3.1,79,0.00,,---,0.00,VWS V14.00,2013-03-11 09:47:00,
2013-03-11 04:50:00,33.1,27.3,29.00,North,10,0.0,3.1,79,0.00,,---,0.00,VWS V14.00,2013-03-11 09:50:00,
2013-03-11 04:56:00,33.1,27.3,28.97,SSE,159,3.6,3.6,79,0.00,,---,0.00,VWS V14.00,2013-03-11 09:56:00,
2013-03-11 04:59:00,33.1,27.3,28.97,North,357,0.0,3.6,79,0.00,,---,0.00,VWS V14.00,2013-03-11 09:59:00,
2013-03-11 05:02:00,33.1,27.3,28.97,SW,229,0.0,3.6,79,0.00,,---,0.00,VWS V14.00,2013-03-11 10:02:00,
2013-03-11 05:05:00,33.2,27.4,28.97,SE,134,2.2,2.2,79,0.00,,---,0.00,VWS V14.00,2013-03-11 10:05:00,
2013-03-11 05:08:00,33.2,27.4,28.97,NNE,21,0.0,2.2,79,0.00,,---,0.00,VWS V14.00,2013-03-11 10:08:00,
2013-03-11 05:11:00,33.2,27.4,29.00,NNE,21,0.0,2.2,79,0.00,,---,0.00,VWS V14.00,2013-03-11 10:11:00,
2013-03-11 05:17:00,33.1,27.0,29.00,East,82,0.0,4.0,78,0.00,,---,0.00,VWS V14.00,2013-03-11 10:17:00,
2013-03-11 05:20:00,33.1,27.0,29.00,North,10,0.0,4.0,78,0.00,,---,0.00,VWS V14.00,2013-03-11 10:20:00,
2013-03-11 05:26:00,33.1,27.0,29.00,SSW,212,0.0,2.7,78,0.00,,---,0.00,VWS V14.00,2013-03-11 10:26:00,
2013-03-11 05:29:00,33.1,27.0,29.00,ENE,62,3.1,3.1,78,0.00,,---,0.00,VWS V14.00,2013-03-11 10:29:00,
2013-03-11 05:32:00,33.1,27.0,29.00,NE,35,2.7,3.1,78,0.00,,---,0.00,VWS V14.00,2013-03-11 10:32:00,
2013-03-11 05:35:00,33.1,27.0,29.00,NNE,13,0.0,3.1,78,0.00,,---,0.00,VWS V14.00,2013-03-11 10:35:00,
2013-03-11 05:38:00,32.7,26.3,29.00,NNE,13,0.0,0.0,77,0.00,,---,0.00,VWS V14.00,2013-03-11 10:38:00,
2013-03-11 05:41:00,32.7,26.3,29.00,NNE,13,0.0,0.0,77,0.00,,---,0.00,VWS V14.00,2013-03-11 10:41:00,
2013-03-11 05:47:00,32.5,25.8,29.00,NNW,344,0.0,2.7,76,0.00,,---,0.00,VWS V14.00,2013-03-11 10:47:00,
2013-03-11 05:50:00,32.3,25.6,29.00,WNW,290,0.0,2.7,76,0.00,,---,0.00,VWS V14.00,2013-03-11 10:50:00,
2013-03-11 05:51:00,32.3,25.6,29.00,WNW,290,0.0,0.0,76,0.00,,---,0.00,VWS V14.00,2013-03-11 10:51:00,
2013-03-11 05:57:00,32.3,25.6,29.00,SSW,202,0.0,0.0,76,0.00,,---,0.00,VWS V14.00,2013-03-11 10:57:00,
2013-03-11 06:00:00,32.3,25.6,29.00,SW,233,0.0,0.0,76,0.00,,---,0.00,VWS V14.00,2013-03-11 11:00:00,
2013-03-11 06:03:00,32.3,25.6,29.00,South,186,0.0,2.7,76,0.00,,---,0.00,VWS V14.00,2013-03-11 11:03:00,
2013-03-11 06:05:00,32.3,25.6,29.00,SSW,199,3.1,3.1,76,0.00,,---,0.00,VWS V14.00,2013-03-11 11:05:00,
2013-03-11 06:09:00,32.5,25.8,29.00,SSE,160,2.7,3.1,76,0.00,,---,0.00,VWS V14.00,2013-03-11 11:09:00,
2013-03-11 06:15:00,32.5,25.8,29.00,ESE,117,0.0,3.1,76,0.00,,---,0.00,VWS V14.00,2013-03-11 11:15:00,
2013-03-11 06:18:00,32.5,25.8,29.00,South,173,0.0,3.1,76,0.00,,---,0.00,VWS V14.00,2013-03-11 11:18:00,
2013-03-11 06:20:00,32.9,26.2,29.00,ENE,66,0.0,3.6,76,0.00,,---,0.00,VWS V14.00,2013-03-11 11:20:00,
2013-03-11 06:21:00,32.9,26.2,29.00,ENE,66,0.0,0.0,76,0.00,,---,0.00,VWS V14.00,2013-03-11 11:21:00,
2013-03-11 06:24:00,32.9,26.2,29.00,South,189,2.7,2.7,76,0.00,,---,0.00,VWS V14.00,2013-03-11 11:24:00,
2013-03-11 06:27:00,32.9,26.2,29.00,NNW,339,0.0,2.7,76,0.00,,---,0.00,VWS V14.00,2013-03-11 11:27:00,
2013-03-11 06:33:00,32.9,26.2,29.00,NE,52,3.1,3.1,76,0.00,,---,0.00,VWS V14.00,2013-03-11 11:33:00,
2013-03-11 06:35:00,32.9,26.2,29.00,SSW,202,0.0,3.1,76,0.00,,---,0.00,VWS V14.00,2013-03-11 11:35:00,
2013-03-11 06:36:00,32.9,26.2,29.00,SSW,202,0.0,0.0,76,0.00,,---,0.00,VWS V14.00,2013-03-11 11:36:00,
2013-03-11 06:42:00,32.7,25.7,29.00,SSW,195,0.0,2.7,75,0.00,,---,0.00,VWS V14.00,2013-03-11 11:42:00,
2013-03-11 06:45:00,32.7,25.7,29.00,SW,214,0.0,2.7,75,0.00,,---,0.00,VWS V14.00,2013-03-11 11:45:00,
2013-03-11 06:50:00,32.5,25.8,29.00,North,10,0.0,2.7,76,0.00,,---,0.00,VWS V14.00,2013-03-11 11:50:00,
2013-03-11 06:57:00,32.5,25.8,29.00,NE,49,0.0,0.0,76,0.00,,---,0.00,VWS V14.00,2013-03-11 11:57:00,
2013-03-11 07:00:00,32.5,25.8,29.00,North,353,0.0,0.0,76,0.00,,---,0.00,VWS V14.00,2013-03-11 12:00:00,
2013-03-11 07:03:00,32.5,25.8,29.00,North,353,0.0,0.0,76,0.00,,---,0.00,VWS V14.00,2013-03-11 12:03:00,
2013-03-11 07:09:00,32.5,25.8,29.00,NE,49,2.2,2.2,76,0.00,,---,0.00,VWS V14.00,2013-03-11 12:09:00,
2013-03-11 07:15:00,32.9,26.2,29.00,WNW,282,2.2,2.2,76,0.00,,---,0.00,VWS V14.00,2013-03-11 12:15:00,
2013-03-11 07:18:00,32.9,26.2,29.00,SSW,192,0.0,3.6,76,0.00,,---,0.00,VWS V14.00,2013-03-11 12:18:00,
2013-03-11 07:20:00,33.1,26.3,29.00,SSW,192,0.0,3.6,76,0.00,,---,0.00,VWS V14.00,2013-03-11 12:20:00,
2013-03-11 07:28:00,33.1,26.3,29.00,West,267,2.7,2.7,76,0.00,,---,0.00,VWS V14.00,2013-03-11 12:28:00,
2013-03-11 07:31:00,33.1,26.3,29.00,South,178,0.0,2.7,76,0.00,,---,0.00,VWS V14.00,2013-03-11 12:31:00,
2013-03-11 07:34:00,33.1,26.3,29.00,SSE,151,2.2,2.7,76,0.00,,---,0.00,VWS V14.00,2013-03-11 12:34:00,
2013-03-11 07:37:00,33.1,26.3,29.00,SSE,162,3.1,3.1,76,0.00,,---,0.00,VWS V14.00,2013-03-11 12:37:00,
2013-03-11 07:43:00,33.1,26.3,29.00,NNW,335,4.0,4.0,76,0.00,,---,0.00,VWS V14.00,2013-03-11 12:43:00,
2013-03-11 07:49:00,33.1,25.7,29.00,SSE,149,0.0,4.0,74,0.00,,---,0.00,VWS V14.00,2013-03-11 12:49:00,
2013-03-11 07:50:00,33.1,25.7,29.00,SSE,149,0.0,4.0,74,0.00,,---,0.00,VWS V14.00,2013-03-11 12:50:00,
2013-03-11 07:58:00,33.1,25.7,29.00,SSW,200,0.0,3.6,74,0.00,,---,0.00,VWS V14.00,2013-03-11 12:58:00,
2013-03-11 08:01:00,33.1,25.7,29.00,North,353,2.7,3.6,74,0.00,,---,0.00,VWS V14.00,2013-03-11 13:01:00,
2013-03-11 08:07:00,33.2,25.9,29.00,SW,214,2.7,2.7,74,0.00,,---,0.00,VWS V14.00,2013-03-11 13:07:00,
2013-03-11 08:13:00,33.2,25.5,29.00,West,274,0.0,2.7,73,0.00,,---,0.00,VWS V14.00,2013-03-11 13:13:00,
2013-03-11 08:19:00,33.2,25.5,29.00,WSW,247,0.0,3.1,73,0.00,,---,0.00,VWS V14.00,2013-03-11 13:19:00,
2013-03-11 08:22:00,33.4,25.7,29.00,WSW,247,0.0,0.0,73,0.00,,---,0.00,VWS V14.00,2013-03-11 13:22:00,
2013-03-11 08:28:00,33.4,25.7,29.00,ESE,122,0.0,4.0,73,0.00,,---,0.00,VWS V14.00,2013-03-11 13:28:00,
2013-03-11 08:34:00,33.4,25.7,29.00,WSW,237,3.1,4.0,73,0.00,,---,0.00,VWS V14.00,2013-03-11 13:34:00,
2013-03-11 08:37:00,33.2,24.9,29.00,WSW,237,3.1,3.1,71,0.00,,---,0.00,VWS V14.00,2013-03-11 13:37:00,
2013-03-11 08:40:00,33.1,24.7,29.00,SW,224,2.2,3.1,71,0.00,,---,0.00,VWS V14.00,2013-03-11 13:40:00,
2013-03-11 08:46:00,33.4,25.0,29.03,NNE,14,0.0,3.1,71,0.00,,---,0.00,VWS V14.00,2013-03-11 13:46:00,
2013-03-11 08:52:00,33.4,25.0,29.03,South,190,0.0,3.1,71,0.00,,---,0.00,VWS V14.00,2013-03-11 13:52:00,
2013-03-11 08:58:00,33.4,24.7,29.03,SSW,207,0.0,3.1,70,0.00,,---,0.00,VWS V14.00,2013-03-11 13:58:00,
2013-03-11 09:01:00,33.4,24.7,29.03,North,5,0.0,3.1,70,0.00,,---,0.00,VWS V14.00,2013-03-11 14:01:00,
2013-03-11 09:04:00,33.8,25.4,29.03,North,5,0.0,3.1,71,0.00,,---,0.00,VWS V14.00,2013-03-11 14:04:00,
2013-03-11 09:10:00,33.8,25.4,29.03,NE,45,0.0,2.2,71,0.00,,---,0.00,VWS V14.00,2013-03-11 14:10:00,
2013-03-11 09:20:00,33.8,25.4,29.03,South,182,0.0,2.2,71,0.00,,---,0.00,VWS V14.00,2013-03-11 14:20:00,
2013-03-11 09:26:00,34.5,25.7,29.03,SE,128,0.0,3.1,70,0.00,,---,0.00,VWS V14.00,2013-03-11 14:26:00,
2013-03-11 09:29:00,34.5,25.4,29.03,SE,128,0.0,3.1,69,0.00,,---,0.00,VWS V14.00,2013-03-11 14:29:00,
2013-03-11 09:32:00,34.5,25.4,29.03,NNW,343,3.6,3.6,69,0.00,,---,0.00,VWS V14.00,2013-03-11 14:32:00,
2013-03-11 09:35:00,34.5,25.4,29.03,North,353,0.0,3.6,69,0.00,,---,0.00,VWS V14.00,2013-03-11 14:35:00,
2013-03-11 09:38:00,34.3,24.9,29.03,SSW,209,3.6,3.6,68,0.00,,---,0.00,VWS V14.00,2013-03-11 14:38:00,
2013-03-11 09:41:00,34.3,24.9,29.03,SW,227,0.0,3.6,68,0.00,,---,0.00,VWS V14.00,2013-03-11 14:41:00,
2013-03-11 09:47:00,34.9,25.4,29.03,SW,227,0.0,3.6,68,0.00,,---,0.00,VWS V14.00,2013-03-11 14:47:00,
2013-03-11 09:50:00,34.9,25.4,29.03,SSW,194,2.2,3.6,68,0.00,,---,0.00,VWS V14.00,2013-03-11 14:50:00,
2013-03-11 09:56:00,34.9,24.7,29.03,SSW,194,2.2,2.2,66,0.00,,---,0.00,VWS V14.00,2013-03-11 14:56:00,
2013-03-11 10:02:00,35.2,24.6,29.03,South,190,2.2,2.2,65,0.00,,---,0.00,VWS V14.00,2013-03-11 15:02:00,
2013-03-11 10:05:00,35.2,24.6,29.03,ESE,111,0.0,2.2,65,0.00,,---,0.00,VWS V14.00,2013-03-11 15:05:00,
2013-03-11 10:11:00,35.8,25.2,29.03,WNW,282,0.0,3.1,65,0.00,,---,0.00,VWS V14.00,2013-03-11 15:11:00,
2013-03-11 10:14:00,35.8,25.2,29.03,SSW,199,0.0,3.1,65,0.00,,---,0.00,VWS V14.00,2013-03-11 15:14:00,
2013-03-11 10:17:00,35.8,25.2,29.03,SSW,193,3.6,3.6,65,0.00,,---,0.00,VWS V14.00,2013-03-11 15:17:00,
2013-03-11 10:20:00,36.1,25.1,29.03,SW,220,0.0,3.6,64,0.00,,---,0.00,VWS V14.00,2013-03-11 15:20:00,
2013-03-11 10:23:00,36.5,25.5,29.03,SW,220,0.0,0.0,64,0.00,,---,0.00,VWS V14.00,2013-03-11 15:23:00,
2013-03-11 10:26:00,36.5,25.5,29.03,West,275,2.7,2.7,64,0.00,,---,0.00,VWS V14.00,2013-03-11 15:26:00,
2013-03-11 10:29:00,36.8,25.8,29.03,SW,215,0.0,2.7,64,0.00,,---,0.00,VWS V14.00,2013-03-11 15:29:00,
2013-03-11 10:32:00,36.8,25.8,29.06,North,4,0.0,2.7,64,0.00,,---,0.00,VWS V14.00,2013-03-11 15:32:00,
2013-03-11 10:35:00,36.8,25.8,29.06,SW,214,3.1,3.1,64,0.00,,---,0.00,VWS V14.00,2013-03-11 15:35:00,
2013-03-11 10:38:00,37.0,25.6,29.06,SW,214,3.1,3.1,63,0.00,,---,0.00,VWS V14.00,2013-03-11 15:38:00,
2013-03-11 10:41:00,37.0,25.6,29.06,SW,214,4.0,4.0,63,0.00,,---,0.00,VWS V14.00,2013-03-11 15:41:00,
2013-03-11 10:47:00,37.0,25.6,29.06,SE,142,0.0,4.0,63,0.00,,---,0.00,VWS V14.00,2013-03-11 15:47:00,
2013-03-11 10:50:00,37.0,25.6,29.06,South,177,3.1,4.0,63,0.00,,---,0.00,VWS V14.00,2013-03-11 15:50:00,
2013-03-11 10:53:00,37.7,25.9,29.06,South,180,0.0,5.4,62,0.00,,---,0.00,VWS V14.00,2013-03-11 15:53:00,
2013-03-11 10:56:00,37.7,25.9,29.06,SE,136,4.0,5.4,62,0.00,,---,0.00,VWS V14.00,2013-03-11 15:56:00,
2013-03-11 11:03:00,37.7,25.5,29.06,SW,214,0.0,5.4,61,0.00,,---,0.00,VWS V14.00,2013-03-11 16:03:00,
2013-03-11 11:05:00,37.7,25.5,29.06,WSW,239,2.2,5.4,61,0.00,,---,0.00,VWS V14.00,2013-03-11 16:05:00,
2013-03-11 11:09:00,37.7,25.5,29.06,NNW,328,2.2,2.2,61,0.00,,---,0.00,VWS V14.00,2013-03-11 16:09:00,
2013-03-11 11:15:00,37.7,25.1,29.06,WNW,286,2.2,2.2,60,0.00,,---,0.00,VWS V14.00,2013-03-11 16:15:00,
2013-03-11 11:18:00,37.7,25.1,29.06,SSW,213,2.7,2.7,60,0.00,,---,0.00,VWS V14.00,2013-03-11 16:18:00,
2013-03-11 11:24:00,37.6,24.5,29.06,SSW,205,0.0,0.0,59,0.00,,---,0.00,VWS V14.00,2013-03-11 16:24:00,
2013-03-11 11:27:00,37.6,24.5,29.06,SSE,160,3.1,3.1,59,0.00,,---,0.00,VWS V14.00,2013-03-11 16:27:00,
2013-03-11 11:30:00,37.6,24.5,29.06,WNW,286,0.0,3.1,59,0.00,,---,0.00,VWS V14.00,2013-03-11 16:30:00,
2013-03-11 11:36:00,37.4,24.4,29.06,SSW,208,0.0,3.1,59,0.00,,---,0.00,VWS V14.00,2013-03-11 16:36:00,
2013-03-11 11:39:00,37.4,24.4,29.06,SSW,208,0.0,3.1,59,0.00,,---,0.00,VWS V14.00,2013-03-11 16:39:00,
2013-03-11 11:42:00,37.4,24.4,29.06,SSE,155,3.1,4.0,59,0.00,,---,0.00,VWS V14.00,2013-03-11 16:42:00,
2013-03-11 11:45:00,37.7,24.7,29.06,ESE,115,0.0,4.0,59,0.00,,---,0.00,VWS V14.00,2013-03-11 16:45:00,
2013-03-11 11:48:00,37.7,24.7,29.06,ESE,115,0.0,4.0,59,0.00,,---,0.00,VWS V14.00,2013-03-11 16:48:00,
2013-03-11 11:51:00,37.7,24.7,29.06,South,181,0.0,0.0,59,0.00,,---,0.00,VWS V14.00,2013-03-11 16:51:00,
2013-03-11 11:54:00,37.6,24.1,29.06,SE,145,0.0,3.1,58,0.00,,---,0.00,VWS V14.00,2013-03-11 16:54:00,
2013-03-11 11:57:00,37.7,24.3,29.06,SE,141,0.0,3.1,58,0.00,,---,0.00,VWS V14.00,2013-03-11 16:57:00,
2013-03-11 12:00:00,37.7,24.3,29.06,SE,141,0.0,3.1,58,0.00,,---,0.00,VWS V14.00,2013-03-11 17:00:00,
2013-03-11 12:06:00,37.6,23.7,29.06,South,187,0.0,3.1,57,0.00,,---,0.00,VWS V14.00,2013-03-11 17:06:00,
2013-03-11 12:12:00,38.1,24.6,29.06,SE,124,3.1,3.1,58,0.00,,---,0.00,VWS V14.00,2013-03-11 17:12:00,
2013-03-11 12:16:00,38.1,24.6,29.06,SE,124,3.1,3.1,58,0.00,,---,0.00,VWS V14.00,2013-03-11 17:16:00,
2013-03-11 12:19:00,38.1,24.6,29.06,SE,124,3.1,3.1,58,0.00,,---,0.00,VWS V14.00,2013-03-11 17:19:00,
2013-03-11 12:25:00,39.5,25.6,29.06,SSE,166,0.0,3.1,57,0.00,,---,0.00,VWS V14.00,2013-03-11 17:25:00,
2013-03-11 12:28:00,39.9,25.9,29.06,SE,143,0.0,3.1,57,0.00,,---,0.00,VWS V14.00,2013-03-11 17:28:00,
2013-03-11 12:31:00,40.1,26.1,29.06,SSW,203,0.0,3.1,57,0.00,,---,0.00,VWS V14.00,2013-03-11 17:31:00,
2013-03-11 12:35:00,39.7,25.3,29.06,East,90,0.0,3.1,56,0.00,,---,0.00,VWS V14.00,2013-03-11 17:35:00,
2013-03-11 12:40:00,39.7,25.3,29.06,South,175,0.0,3.1,56,0.00,,---,0.00,VWS V14.00,2013-03-11 17:40:00,
2013-03-11 12:49:00,40.1,25.2,29.06,North,357,0.0,3.6,55,0.00,,---,0.00,VWS V14.00,2013-03-11 17:49:00,
2013-03-11 12:50:00,40.1,25.2,29.06,North,357,0.0,3.6,55,0.00,,---,0.00,VWS V14.00,2013-03-11 17:50:00,
2013-03-11 12:55:00,41.0,26.1,29.06,North,4,0.0,3.6,55,0.00,,---,0.00,VWS V14.00,2013-03-11 17:55:00,
2013-03-11 13:01:00,42.2,27.2,29.06,North,4,0.0,3.6,55,0.00,,---,0.00,VWS V14.00,2013-03-11 18:01:00,
2013-03-11 13:04:00,42.2,27.2,29.06,NNE,19,0.0,3.6,55,0.00,,---,0.00,VWS V14.00,2013-03-11 18:04:00,
2013-03-11 13:07:00,42.1,26.2,29.06,North,357,0.0,0.0,53,0.00,,---,0.00,VWS V14.00,2013-03-11 18:07:00,
2013-03-11 13:13:00,42.1,26.2,29.06,SW,214,0.0,0.0,53,0.00,,---,0.00,VWS V14.00,2013-03-11 18:13:00,
2013-03-11 13:16:00,42.4,26.5,29.06,SSW,197,0.0,0.0,53,0.00,,---,0.00,VWS V14.00,2013-03-11 18:16:00,
2013-03-11 13:20:00,42.4,26.5,29.06,NE,47,0.0,2.7,53,0.00,,---,0.00,VWS V14.00,2013-03-11 18:20:00,
2013-03-11 13:22:00,42.4,26.5,29.06,SSW,204,3.1,3.1,53,0.00,,---,0.00,VWS V14.00,2013-03-11 18:22:00,
2013-03-11 13:29:00,42.6,26.7,29.06,North,357,0.0,3.1,53,0.00,,---,0.00,VWS V14.00,2013-03-11 18:29:00,
2013-03-11 13:32:00,43.0,27.0,29.06,North,357,0.0,3.1,53,0.00,,---,0.00,VWS V14.00,2013-03-11 18:32:00,
2013-03-11 13:35:00,43.1,26.7,29.06,South,186,0.0,3.1,52,0.00,,---,0.00,VWS V14.00,2013-03-11 18:35:00,
2013-03-11 13:41:00,43.3,26.4,29.06,SW,214,2.7,2.7,51,0.00,,---,0.00,VWS V14.00,2013-03-11 18:41:00,
2013-03-11 13:47:00,43.5,26.6,29.06,North,6,2.7,2.7,51,0.00,,---,0.00,VWS V14.00,2013-03-11 18:47:00,
2013-03-11 13:50:00,43.9,27.4,29.06,North,0,2.7,2.7,52,0.00,,---,0.00,VWS V14.00,2013-03-11 18:50:00,
2013-03-11 13:53:00,44.4,27.4,29.06,SW,216,0.0,2.7,51,0.00,,---,0.00,VWS V14.00,2013-03-11 18:53:00,
2013-03-11 14:02:00,44.6,27.6,29.03,ESE,119,2.2,3.1,51,0.00,,---,0.00,VWS V14.00,2013-03-11 19:02:00,
2013-03-11 14:05:00,44.6,27.6,29.03,South,189,0.0,3.6,51,0.00,,---,0.00,VWS V14.00,2013-03-11 19:05:00,
2013-03-11 14:11:00,45.1,28.1,29.03,NNE,26,0.0,3.1,51,0.00,,---,0.00,VWS V14.00,2013-03-11 19:11:00,
2013-03-11 14:14:00,45.1,28.1,29.03,NNW,334,2.7,3.1,51,0.00,,---,0.00,VWS V14.00,2013-03-11 19:14:00,
2013-03-11 14:17:00,45.7,28.1,29.03,SW,234,2.7,3.1,50,0.00,,---,0.00,VWS V14.00,2013-03-11 19:17:00,
2013-03-11 14:20:00,45.7,28.1,29.03,SE,125,0.0,0.0,50,0.00,,---,0.00,VWS V14.00,2013-03-11 19:20:00,
2013-03-11 14:23:00,46.0,28.4,29.03,North,4,4.9,4.9,50,0.00,,---,0.00,VWS V14.00,2013-03-11 19:23:00,
2013-03-11 14:26:00,46.0,28.4,29.03,West,263,3.1,4.9,50,0.00,,---,0.00,VWS V14.00,2013-03-11 19:26:00,
2013-03-11 14:32:00,46.2,28.6,29.03,South,185,2.7,4.9,50,0.00,,---,0.00,VWS V14.00,2013-03-11 19:32:00,
2013-03-11 14:35:00,46.2,28.1,29.03,South,185,2.7,4.9,49,0.00,,---,0.00,VWS V14.00,2013-03-11 19:35:00,
2013-03-11 14:41:00,46.2,28.1,29.03,SSE,165,0.0,2.7,49,0.00,,---,0.00,VWS V14.00,2013-03-11 19:41:00,
2013-03-11 14:44:00,46.0,28.4,29.03,NNE,23,2.7,2.7,50,0.00,,---,0.00,VWS V14.00,2013-03-11 19:44:00,
2013-03-11 14:50:00,45.7,27.6,29.03,NNE,14,0.0,2.7,49,0.00,,---,0.00,VWS V14.00,2013-03-11 19:50:00,
2013-03-11 14:56:00,45.7,27.6,29.03,South,188,0.0,3.6,49,0.00,,---,0.00,VWS V14.00,2013-03-11 19:56:00,
2013-03-11 14:59:00,46.0,28.0,29.03,SW,235,3.6,3.6,49,0.00,,---,0.00,VWS V14.00,2013-03-11 19:59:00,
2013-03-11 15:02:00,45.8,27.8,29.03,SSE,161,3.1,3.6,49,0.00,,---,0.00,VWS V14.00,2013-03-11 20:02:00,
2013-03-11 15:05:00,45.8,27.8,29.03,North,6,0.0,3.6,49,0.00,,---,0.00,VWS V14.00,2013-03-11 20:05:00,
2013-03-11 15:09:00,46.6,28.4,29.03,SW,229,2.7,2.7,49,0.00,,---,0.00,VWS V14.00,2013-03-11 20:09:00,
2013-03-11 15:12:00,46.7,28.6,29.03,SW,217,0.0,3.1,49,0.00,,---,0.00,VWS V14.00,2013-03-11 20:12:00,
2013-03-11 15:15:00,46.7,28.6,29.03,SE,124,2.7,4.0,49,0.00,,---,0.00,VWS V14.00,2013-03-11 20:15:00,
2013-03-11 15:18:00,47.6,29.4,29.03,SE,124,2.7,4.0,49,0.00,,---,0.00,VWS V14.00,2013-03-11 20:18:00,
2013-03-11 15:24:00,48.0,29.3,29.03,SSW,195,4.0,4.0,48,0.00,,---,0.00,VWS V14.00,2013-03-11 20:24:00,
2013-03-11 15:27:00,48.2,29.4,29.03,NNE,18,2.7,4.0,48,0.00,,---,0.00,VWS V14.00,2013-03-11 20:27:00,
2013-03-11 15:30:00,48.2,29.4,29.03,SSW,198,2.2,4.0,48,0.00,,---,0.00,VWS V14.00,2013-03-11 20:30:00,
2013-03-11 15:33:00,48.5,29.8,29.03,SSW,208,4.0,4.0,48,0.00,,---,0.00,VWS V14.00,2013-03-11 20:33:00,
2013-03-11 15:35:00,48.5,29.8,29.03,NE,49,0.0,4.0,48,0.00,,---,0.00,VWS V14.00,2013-03-11 20:35:00,
2013-03-11 15:36:00,48.0,28.8,29.03,NE,49,0.0,0.0,47,0.00,,---,0.00,VWS V14.00,2013-03-11 20:36:00,
2013-03-11 15:39:00,48.0,28.8,29.03,NE,49,0.0,0.0,47,0.00,,---,0.00,VWS V14.00,2013-03-11 20:39:00,
2013-03-11 15:42:00,48.4,29.1,29.03,ESE,109,0.0,0.0,47,0.00,,---,0.00,VWS V14.00,2013-03-11 20:42:00,
2013-03-11 15:45:00,48.4,29.1,29.03,ESE,116,2.2,2.2,47,0.00,,---,0.00,VWS V14.00,2013-03-11 20:45:00,
2013-03-11 15:51:00,48.5,29.8,29.03,SSW,201,0.0,0.0,48,0.00,,---,0.00,VWS V14.00,2013-03-11 20:51:00,
2013-03-11 15:57:00,48.5,29.8,29.03,WSW,241,2.2,2.7,48,0.00,,---,0.00,VWS V14.00,2013-03-11 20:57:00,
2013-03-11 16:00:00,48.7,29.4,29.03,WSW,241,2.2,2.7,47,0.00,,---,0.00,VWS V14.00,2013-03-11 21:00:00,
2013-03-11 16:03:00,48.5,29.2,29.03,WSW,257,2.2,2.7,47,0.00,,---,0.00,VWS V14.00,2013-03-11 21:03:00,
2013-03-11 16:09:00,48.7,29.4,29.03,SSE,156,2.2,2.2,47,0.00,,---,0.00,VWS V14.00,2013-03-11 21:09:00,
2013-03-11 16:12:00,48.7,29.4,29.03,SW,217,4.5,4.5,47,0.00,,---,0.00,VWS V14.00,2013-03-11 21:12:00,
2013-03-11 16:18:00,47.1,27.9,29.03,NE,46,3.1,4.5,47,0.00,,---,0.00,VWS V14.00,2013-03-11 21:18:00,
2013-03-11 16:20:00,47.1,27.9,29.03,NE,46,3.1,4.5,47,0.00,,---,0.00,VWS V14.00,2013-03-11 21:20:00,
2013-03-11 16:24:00,47.6,28.4,29.03,SW,214,0.0,3.1,47,0.00,,---,0.00,VWS V14.00,2013-03-11 21:24:00,
2013-03-11 16:27:00,47.6,28.4,29.03,NE,42,2.2,6.7,47,0.00,,---,0.00,VWS V14.00,2013-03-11 21:27:00,
2013-03-11 16:33:00,48.4,29.1,29.03,SSW,196,0.0,6.7,47,0.00,,---,0.00,VWS V14.00,2013-03-11 21:33:00,
2013-03-11 16:35:00,48.4,29.1,29.03,SSW,196,0.0,6.7,47,0.00,,---,0.00,VWS V14.00,2013-03-11 21:35:00,
2013-03-11 16:39:00,48.4,29.1,29.03,SSE,152,0.0,3.1,47,0.00,,---,0.00,VWS V14.00,2013-03-11 21:39:00,
2013-03-11 16:42:00,48.9,29.6,29.03,NE,49,2.2,3.1,47,0.00,,---,0.00,VWS V14.00,2013-03-11 21:42:00,
2013-03-11 16:48:00,48.9,29.0,29.03,SSE,150,0.0,3.1,46,0.00,,---,0.00,VWS V14.00,2013-03-11 21:48:00,
2013-03-11 16:50:00,48.9,29.0,29.03,SSE,150,0.0,3.1,46,0.00,,---,0.00,VWS V14.00,2013-03-11 21:50:00,
2013-03-11 16:54:00,49.4,29.5,29.03,SSE,148,2.2,2.2,46,0.00,,---,0.00,VWS V14.00,2013-03-11 21:54:00,
2013-03-11 17:00:00,49.3,29.4,29.03,NNW,339,0.0,2.2,46,0.00,,---,0.00,VWS V14.00,2013-03-11 22:00:00,
2013-03-11 17:03:00,49.3,29.4,29.03,North,11,3.6,3.6,46,0.00,,---,0.00,VWS V14.00,2013-03-11 22:03:00,
2013-03-11 17:09:00,49.3,29.4,29.03,NNE,25,0.0,3.6,46,0.00,,---,0.00,VWS V14.00,2013-03-11 22:09:00,
2013-03-11 17:12:00,49.3,29.4,29.03,WSW,245,2.7,3.6,46,0.00,,---,0.00,VWS V14.00,2013-03-11 22:12:00,
2013-03-11 17:15:00,50.2,29.7,29.03,SW,216,0.0,3.6,45,0.00,,---,0.00,VWS V14.00,2013-03-11 22:15:00,
2013-03-11 17:18:00,50.2,29.7,29.03,SW,232,0.0,3.6,45,0.00,,---,0.00,VWS V14.00,2013-03-11 22:18:00,
2013-03-11 17:20:00,51.4,30.2,29.03,SW,232,0.0,3.6,44,0.00,,---,0.00,VWS V14.00,2013-03-11 22:20:00,
2013-03-11 17:25:00,52.9,31.0,29.03,SSE,167,0.0,2.7,43,0.00,,---,0.00,VWS V14.00,2013-03-11 22:25:00,
2013-03-11 17:31:00,52.9,31.0,29.03,South,190,2.7,2.7,43,0.00,,---,0.00,VWS V14.00,2013-03-11 22:31:00,
2013-03-11 17:35:00,55.6,32.3,29.03,SSE,162,0.0,2.7,41,0.00,,---,0.00,VWS V14.00,2013-03-11 22:35:00,
2013-03-11 17:37:00,55.6,32.3,29.03,SSW,202,2.2,2.2,41,0.00,,---,0.00,VWS V14.00,2013-03-11 22:37:00,
2013-03-11 17:40:00,55.7,31.8,29.03,SSW,202,0.0,2.2,40,0.00,,---,0.00,VWS V14.00,2013-03-11 22:40:00,
2013-03-11 17:43:00,56.1,31.5,29.03,SSW,194,0.0,2.2,39,0.00,,---,0.00,VWS V14.00,2013-03-11 22:43:00,
2013-03-11 17:49:00,57.2,31.8,29.03,SW,227,0.0,2.2,38,0.00,,---,0.00,VWS V14.00,2013-03-11 22:49:00,
2013-03-11 17:50:00,57.2,31.8,29.03,SSW,204,0.0,2.2,38,0.00,,---,0.00,VWS V14.00,2013-03-11 22:50:00,
2013-03-11 17:55:00,57.0,31.7,29.03,ESE,105,3.1,3.1,38,0.00,,---,0.00,VWS V14.00,2013-03-11 22:55:00,
2013-03-11 17:58:00,56.3,31.0,29.03,SSE,163,2.7,3.1,38,0.00,,---,0.00,VWS V14.00,2013-03-11 22:58:00,
2013-03-11 18:01:00,55.7,30.5,29.03,NNE,20,0.0,3.1,38,0.00,,---,0.00,VWS V14.00,2013-03-11 23:01:00,
2013-03-11 18:04:00,55.4,30.2,29.03,NNE,27,0.0,3.1,38,0.00,,---,0.00,VWS V14.00,2013-03-11 23:04:00,
2013-03-11 18:05:00,55.0,29.9,29.03,WSW,249,0.0,3.1,38,0.00,,---,0.00,VWS V14.00,2013-03-11 23:05:00,
2013-03-11 18:10:00,54.8,29.7,29.03,SSE,159,0.0,3.6,38,0.00,,---,0.00,VWS V14.00,2013-03-11 23:10:00,
2013-03-11 18:16:00,54.3,29.2,29.03,ENE,66,0.0,3.6,38,0.00,,---,0.00,VWS V14.00,2013-03-11 23:16:00,
2013-03-11 18:20:00,54.3,29.2,29.03,SE,140,0.0,3.6,38,0.00,,---,0.00,VWS V14.00,2013-03-11 23:20:00,
2013-03-11 18:22:00,52.7,27.8,29.03,WNW,298,2.7,2.7,38,0.00,,---,0.00,VWS V14.00,2013-03-11 23:22:00,
2013-03-11 18:25:00,52.1,27.3,29.03,NNE,14,0.0,3.1,38,0.00,,---,0.00,VWS V14.00,2013-03-11 23:25:00,
2013-03-11 18:31:00,51.6,26.8,29.06,South,180,0.0,3.1,38,0.00,,---,0.00,VWS V14.00,2013-03-11 23:31:00,
2013-03-11 18:34:00,50.9,26.2,29.06,SSW,205,0.0,3.1,38,0.00,,---,0.00,VWS V14.00,2013-03-11 23:34:00,
2013-03-11 18:35:00,50.9,26.2,29.06,SSW,205,0.0,3.1,38,0.00,,---,0.00,VWS V14.00,2013-03-11 23:35:00,
2013-03-11 18:40:00,49.1,25.2,29.06,South,188,0.0,0.0,39,0.00,,---,0.00,VWS V14.00,2013-03-11 23:40:00,
2013-03-11 18:46:00,49.1,25.2,29.06,South,176,2.2,2.2,39,0.00,,---,0.00,VWS V14.00,2013-03-11 23:46:00,
2013-03-11 18:49:00,47.3,24.2,29.06,South,176,2.2,2.2,40,0.00,,---,0.00,VWS V14.00,2013-03-11 23:49:00,
2013-03-11 18:52:00,46.7,23.7,29.06,South,181,3.6,3.6,40,0.00,,---,0.00,VWS V14.00,2013-03-11 23:52:00,
2013-03-11 18:58:00,45.8,22.9,29.06,SW,229,2.2,3.6,40,0.00,,---,0.00,VWS V14.00,2013-03-11 23:58:00,
2013-03-11 19:01:00,45.3,23.0,29.06,South,169,0.0,3.6,41,0.00,,---,0.00,VWS V14.00,2013-03-12 00:01:00,
2013-03-11 19:04:00,45.1,22.8,29.06,South,176,0.0,3.6,41,0.00,,---,0.00,VWS V14.00,2013-03-12 00:04:00,
2013-03-11 19:05:00,45.1,22.8,29.06,South,176,0.0,3.6,41,0.00,,---,0.00,VWS V14.00,2013-03-12 00:05:00,
2013-03-11 19:10:00,44.6,22.4,29.06,West,268,0.0,0.0,41,0.00,,---,0.00,VWS V14.00,2013-03-12 00:10:00,
2013-03-11 19:16:00,44.0,22.4,29.06,NNE,21,0.0,0.0,42,0.00,,---,0.00,VWS V14.00,2013-03-12 00:16:00,
2013-03-11 19:22:00,43.5,22.0,29.06,NNE,21,0.0,0.0,42,0.00,,---,0.00,VWS V14.00,2013-03-12 00:22:00,
2013-03-11 19:25:00,43.1,22.2,29.06,NNE,21,0.0,0.0,43,0.00,,---,0.00,VWS V14.00,2013-03-12 00:25:00,
2013-03-11 19:31:00,42.8,22.4,29.06,NNE,21,0.0,2.7,44,0.00,,---,0.00,VWS V14.00,2013-03-12 00:31:00,
2013-03-11 19:34:00,42.6,22.2,29.06,NNE,21,0.0,2.7,44,0.00,,---,0.00,VWS V14.00,2013-03-12 00:34:00,
2013-03-11 19:35:00,42.6,22.2,29.06,NNE,21,0.0,2.7,44,0.00,,---,0.00,VWS V14.00,2013-03-12 00:35:00,
2013-03-11 19:40:00,42.2,22.4,29.06,SSE,163,0.0,3.6,45,0.00,,---,0.00,VWS V14.00,2013-03-12 00:40:00,
2013-03-11 19:46:00,42.2,22.4,29.06,WNW,290,0.0,3.6,45,0.00,,---,0.00,VWS V14.00,2013-03-12 00:46:00,
2013-03-11 19:49:00,41.9,22.6,29.06,WNW,290,0.0,3.6,46,0.00,,---,0.00,VWS V14.00,2013-03-12 00:49:00,
2013-03-11 19:53:00,41.7,22.5,29.06,WNW,290,0.0,0.0,46,0.00,,---,0.00,VWS V14.00,2013-03-12 00:53:00,
2013-03-11 19:59:00,41.3,22.6,29.06,WNW,290,0.0,0.0,47,0.00,,---,0.00,VWS V14.00,2013-03-12 00:59:00,
2013-03-11 20:05:00,41.0,22.8,29.06,WNW,284,0.0,0.0,48,0.00,,---,0.00,VWS V14.00,2013-03-12 01:05:00,
2013-03-11 20:08:00,41.0,22.8,29.06,WNW,284,0.0,0.0,48,0.00,,---,0.00,VWS V14.00,2013-03-12 01:08:00,
2013-03-11 20:14:00,40.8,23.1,29.06,WNW,286,0.0,0.0,49,0.00,,---,0.00,VWS V14.00,2013-03-12 01:14:00,
2013-03-11 20:17:00,40.6,23.0,29.06,WNW,286,0.0,0.0,49,0.00,,---,0.00,VWS V14.00,2013-03-12 01:17:00,
2013-03-11 20:20:00,40.4,22.8,29.06,WNW,286,0.0,0.0,49,0.00,,---,0.00,VWS V14.00,2013-03-12 01:20:00,
2013-03-11 20:23:00,40.4,22.8,29.06,WNW,286,0.0,0.0,49,0.00,,---,0.00,VWS V14.00,2013-03-12 01:23:00,
2013-03-11 20:29:00,40.1,22.5,29.06,WNW,286,0.0,0.0,49,0.00,,---,0.00,VWS V14.00,2013-03-12 01:29:00,
2013-03-11 20:32:00,40.1,22.5,29.06,WNW,286,0.0,0.0,49,0.00,,---,0.00,VWS V14.00,2013-03-12 01:32:00,
2013-03-11 20:35:00,39.9,22.8,29.06,WNW,286,0.0,0.0,50,0.00,,---,0.00,VWS V14.00,2013-03-12 01:35:00,
2013-03-11 20:41:00,39.7,22.6,29.06,WNW,286,0.0,0.0,50,0.00,,---,0.00,VWS V14.00,2013-03-12 01:41:00,
2013-03-11 20:44:00,39.5,22.5,29.06,WNW,286,0.0,0.0,50,0.00,,---,0.00,VWS V14.00,2013-03-12 01:44:00,
2013-03-11 20:47:00,39.4,22.3,29.06,WNW,286,0.0,0.0,50,0.00,,---,0.00,VWS V14.00,2013-03-12 01:47:00,
2013-03-11 20:50:00,39.4,22.3,29.06,WNW,286,0.0,0.0,50,0.00,,---,0.00,VWS V14.00,2013-03-12 01:50:00,
2013-03-11 20:53:00,39.4,22.3,29.09,WNW,286,0.0,0.0,50,0.00,,---,0.00,VWS V14.00,2013-03-12 01:53:00,
2013-03-11 20:56:00,39.2,22.1,29.09,WNW,286,0.0,0.0,50,0.00,,---,0.00,VWS V14.00,2013-03-12 01:56:00,
2013-03-11 21:02:00,39.2,22.6,29.09,WNW,286,0.0,0.0,51,0.00,,---,0.00,VWS V14.00,2013-03-12 02:02:00,
2013-03-11 21:05:00,39.0,22.4,29.09,WNW,286,0.0,0.0,51,0.00,,---,0.00,VWS V14.00,2013-03-12 02:05:00,
2013-03-11 21:08:00,39.0,22.4,29.09,WNW,286,0.0,0.0,51,0.00,,---,0.00,VWS V14.00,2013-03-12 02:08:00,
2013-03-11 21:11:00,38.8,22.7,29.09,WNW,286,0.0,0.0,52,0.00,,---,0.00,VWS V14.00,2013-03-12 02:11:00,
2013-03-11 21:17:00,38.8,22.7,29.09,WNW,286,0.0,0.0,52,0.00,,---,0.00,VWS V14.00,2013-03-12 02:17:00,
2013-03-11 21:20:00,38.6,22.5,29.09,WNW,286,0.0,0.0,52,0.00,,---,0.00,VWS V14.00,2013-03-12 02:20:00,
2013-03-11 21:27:00,38.3,22.2,29.09,WNW,286,0.0,0.0,52,0.00,,---,0.00,VWS V14.00,2013-03-12 02:27:00,
2013-03-11 21:30:00,38.3,22.2,29.09,WNW,286,0.0,0.0,52,0.00,,---,0.00,VWS V14.00,2013-03-12 02:30:00,
2013-03-11 21:33:00,38.1,22.5,29.09,WNW,286,0.0,0.0,53,0.00,,---,0.00,VWS V14.00,2013-03-12 02:33:00,
2013-03-11 21:36:00,38.1,22.5,29.09,WNW,286,0.0,0.0,53,0.00,,---,0.00,VWS V14.00,2013-03-12 02:36:00,
2013-03-11 21:39:00,37.7,22.6,29.09,WNW,286,0.0,0.0,54,0.00,,---,0.00,VWS V14.00,2013-03-12 02:39:00,
2013-03-11 21:42:00,37.7,22.6,29.09,WNW,286,0.0,0.0,54,0.00,,---,0.00,VWS V14.00,2013-03-12 02:42:00,
2013-03-11 21:45:00,37.7,23.0,29.09,WNW,286,0.0,0.0,55,0.00,,---,0.00,VWS V14.00,2013-03-12 02:45:00,
2013-03-11 21:48:00,37.6,22.9,29.09,WNW,286,0.0,0.0,55,0.00,,---,0.00,VWS V14.00,2013-03-12 02:48:00,
2013-03-11 21:50:00,37.6,23.3,29.09,WNW,286,0.0,0.0,56,0.00,,---,0.00,VWS V14.00,2013-03-12 02:50:00,
2013-03-11 21:57:00,37.6,23.3,29.09,WNW,286,0.0,0.0,56,0.00,,---,0.00,VWS V14.00,2013-03-12 02:57:00,
2013-03-11 22:00:00,37.6,23.3,29.09,WNW,286,0.0,0.0,56,0.00,,---,0.00,VWS V14.00,2013-03-12 03:00:00,
2013-03-11 22:03:00,37.6,23.3,29.09,WNW,286,0.0,0.0,56,0.00,,---,0.00,VWS V14.00,2013-03-12 03:03:00,
2013-03-11 22:05:00,37.6,23.7,29.09,WNW,286,0.0,0.0,57,0.00,,---,0.00,VWS V14.00,2013-03-12 03:05:00,
2013-03-11 22:10:00,37.6,23.7,29.09,WNW,286,0.0,0.0,57,0.00,,---,0.00,VWS V14.00,2013-03-12 03:10:00,
2013-03-11 22:16:00,37.4,24.0,29.12,WNW,286,0.0,0.0,58,0.00,,---,0.00,VWS V14.00,2013-03-12 03:16:00,
2013-03-11 22:19:00,37.2,24.2,29.12,WNW,286,0.0,0.0,59,0.00,,---,0.00,VWS V14.00,2013-03-12 03:19:00,
2013-03-11 22:20:00,37.2,24.2,29.12,WNW,286,0.0,0.0,59,0.00,,---,0.00,VWS V14.00,2013-03-12 03:20:00,
2013-03-11 22:22:00,37.2,24.2,29.12,WNW,286,0.0,0.0,59,0.00,,---,0.00,VWS V14.00,2013-03-12 03:22:00,
2013-03-11 22:25:00,37.0,24.4,29.12,WNW,286,0.0,0.0,60,0.00,,---,0.00,VWS V14.00,2013-03-12 03:25:00,
2013-03-11 22:31:00,36.7,24.5,29.12,WNW,286,0.0,0.0,61,0.00,,---,0.00,VWS V14.00,2013-03-12 03:31:00,
2013-03-11 22:37:00,36.1,24.8,29.12,WNW,286,0.0,0.0,63,0.00,,---,0.00,VWS V14.00,2013-03-12 03:37:00,
2013-03-11 22:40:00,35.9,25.0,29.12,WNW,286,0.0,0.0,64,0.00,,---,0.00,VWS V14.00,2013-03-12 03:40:00,
2013-03-11 22:43:00,35.9,25.0,29.12,WNW,286,0.0,0.0,64,0.00,,---,0.00,VWS V14.00,2013-03-12 03:43:00,
2013-03-11 22:49:00,35.8,25.2,29.12,WNW,286,0.0,0.0,65,0.00,,---,0.00,VWS V14.00,2013-03-12 03:49:00,
2013-03-11 22:52:00,35.8,25.2,29.12,WNW,286,0.0,0.0,65,0.00,,---,0.00,VWS V14.00,2013-03-12 03:52:00,
2013-03-11 22:55:00,35.4,25.2,29.12,WNW,286,0.0,0.0,66,0.00,,---,0.00,VWS V14.00,2013-03-12 03:55:00,
2013-03-11 22:58:00,35.4,25.2,29.12,WNW,286,0.0,0.0,66,0.00,,---,0.00,VWS V14.00,2013-03-12 03:58:00,
2013-03-11 23:01:00,35.4,25.2,29.15,WNW,292,0.0,0.0,66,0.00,,---,0.00,VWS V14.00,2013-03-12 04:01:00,
2013-03-11 23:07:00,35.0,25.2,29.15,NW,311,0.0,0.0,67,0.00,,---,0.00,VWS V14.00,2013-03-12 04:07:00,
2013-03-11 23:13:00,34.9,25.4,29.15,North,357,0.0,0.0,68,0.00,,---,0.00,VWS V14.00,2013-03-12 04:13:00,
2013-03-11 23:19:00,34.9,25.4,29.15,North,357,0.0,0.0,68,0.00,,---,0.00,VWS V14.00,2013-03-12 04:19:00,
2013-03-11 23:20:00,34.9,25.4,29.15,North,357,0.0,0.0,68,0.00,,---,0.00,VWS V14.00,2013-03-12 04:20:00,
2013-03-11 23:22:00,34.7,25.6,29.15,North,357,0.0,0.0,69,0.00,,---,0.00,VWS V14.00,2013-03-12 04:22:00,
2013-03-11 23:25:00,34.5,25.4,29.15,North,357,0.0,0.0,69,0.00,,---,0.00,VWS V14.00,2013-03-12 04:25:00,
2013-03-11 23:28:00,34.5,25.7,29.15,North,7,0.0,0.0,70,0.00,,---,0.00,VWS V14.00,2013-03-12 04:28:00,
2013-03-11 23:35:00,34.1,25.7,29.15,North,7,0.0,0.0,71,0.00,,---,0.00,VWS V14.00,2013-03-12 04:35:00,
2013-03-11 23:41:00,34.1,25.7,29.15,North,7,0.0,0.0,71,0.00,,---,0.00,VWS V14.00,2013-03-12 04:41:00,
2013-03-11 23:47:00,33.8,25.7,29.15,North,7,0.0,0.0,72,0.00,,---,0.00,VWS V14.00,2013-03-12 04:47:00,
2013-03-11 23:50:00,33.6,25.5,29.15,North,7,0.0,0.0,72,0.00,,---,0.00,VWS V14.00,2013-03-12 04:50:00,
2013-03-11 23:53:00,33.6,25.5,29.15,North,7,0.0,0.0,72,0.00,,---,0.00,VWS V14.00,2013-03-12 04:53:00,
2013-03-11 23:59:00,33.4,26.0,29.15,North,7,0.0,0.0,74,0.00,,---,0.00,VWS V14.00,2013-03-12 04:59:00,